This is the latest recevied weather packets stored in our database for station/object KB3VSP. If no packets are shown the sender has not sent any weather packets the latest 10 day(s).
| Time | Temp. | Humidity | Pressure | Rain* | Wind** | Luminosity | Snow |
|---|---|---|---|---|---|---|---|
| 1777655155 | 10° C | 77% | 1012.4 hPa | 0 mm | - | 78 W/m² | - |
| 1777654852 | 9.44° C | 78% | 1012.3 hPa | 0 mm | - | 158 W/m² | - |
| 1777654550 | 9.44° C | 76% | 1012.4 hPa | 0 mm | - | 74 W/m² | - |
| 1777654247 | 10° C | 77% | 1012.4 hPa | 0 mm | - | 80 W/m² | - |
| 1777653945 | 10° C | 78% | 1012.3 hPa | 0 mm | - | 80 W/m² | - |
| 1777653641 | 10° C | 77% | 1012.5 hPa | 0 mm | - | 117 W/m² | - |
| 1777653338 | 10° C | 79% | 1012.5 hPa | 0 mm | - | 124 W/m² | - |
| 1777653035 | 9.44° C | 79% | 1012.6 hPa | 0 mm | - | 216 W/m² | - |
| 1777652731 | 9.44° C | 79% | 1012.3 hPa | 0 mm | - | 185 W/m² | - |
| 1777652428 | 8.89° C | 77% | 1012.7 hPa | 0 mm | - | 125 W/m² | - |
| 1777652125 | 9.44° C | 81% | 1012.9 hPa | 0 mm | - | 147 W/m² | - |
| 1777651822 | 9.44° C | 79% | 1012.6 hPa | 0 mm | - | 107 W/m² | - |
| 1777651519 | 10° C | 79% | 1012.8 hPa | 0 mm | - | 84 W/m² | - |
| 1777651216 | 9.44° C | 79% | 1012.9 hPa | 0 mm | - | 139 W/m² | - |
| 1777650912 | 9.44° C | 78% | 1012.8 hPa | 0 mm | - | 136 W/m² | - |
| 1777650609 | 9.44° C | 82% | 1012.7 hPa | 0 mm | - | 144 W/m² | - |
| 1777650307 | 8.89° C | 82% | 1012.6 hPa | 0 mm | - | 120 W/m² | - |
| 1777650004 | 8.89° C | 83% | 1013.1 hPa | 0 mm | - | 99 W/m² | - |
| 1777649701 | 8.89° C | 82% | 1012.9 hPa | 0 mm | - | 56 W/m² | - |
| 1777649396 | 8.89° C | 82% | 1013.2 hPa | 0 mm | - | 46 W/m² | - |
| 1777649094 | 8.89° C | 81% | 1013.3 hPa | 0 mm | - | 65 W/m² | - |
| 1777648792 | 8.89° C | 82% | 1013.4 hPa | 0 mm | - | 82 W/m² | - |
| 1777648488 | 8.89° C | 82% | 1013.3 hPa | 0 mm | - | 86 W/m² | - |
| 1777648185 | 8.89° C | 82% | 1013.3 hPa | 0 mm | - | 111 W/m² | - |
| 1777647880 | 8.33° C | 83% | 1013.4 hPa | 0 mm | - | 177 W/m² | - |
* Rain latest hour (hover to see other rain measurements)
** Current wind speed in m/s (hover to see current wind gust speed)